Weather in Acipayam

Turkey     37°25′37″N   29°20′58″E
temp.,
°C
wind,
m/s
gust,
m/s
humid.,
%
clouds,
%
prec.,
mm/h
press.,
hPa
HPBL,
m
9 may, sun
sun900:00+14w11440 0.0 101311
03:00+13nnw22430 0.0 101311
06:00+11n34650 0.0 101532
09:00+14n45715 0.0 1016470
12:00+18nne55505 0.0 10161087
15:00+21nne76315 0.0 10141492
18:00+20n66255 0.0 10151324
21:00+13nne34343 0.0 101753
10 may, mon
mon1000:00+11n33350 0.0 101825
03:00+9nne33395 0.0 101731
06:00+7nne33411 0.0 101721
09:00+13nne33281 0.0 1016371
12:00+19nne43190 0.0 1014910
15:00+22nne43180 0.0 10131255
18:00+21n43200 0.0 10121182
21:00+15nnw33310 0.0 101314
11 may, tue
tue1100:00+13n22350 0.0 101412
03:00+11nnw33420 0.0 101315
06:00+9n22470 0.0 101312
09:00+16nne22310 0.0 1012402
12:00+21nne21205 0.0 10111331
15:00+24n33175 0.0 10092280
18:00+23nnw44215 0.0 10081565
21:00+17wnw2234100 0.0 101011
12 may, wed
wed1200:00+14nw12400 0.0 101011
03:00+12nw11450 0.0 100911
06:00+11ssw11461 0.0 100911
09:00+18s12314 0.0 1010588
12:00+23wsw34230 0.0 10082122
15:00+25wsw87190 0.0 10082521
18:00+22wsw762655 0.0 10091626
21:00+15w22464 0.0 101120
13 may, thu
thu1300:00+13s22512 0.0 101213
03:00+12ssw12470 0.0 101112
06:00+11s22390 0.0 101212
09:00+18s24250 0.0 1012686
12:00+23sw68210 0.0 10111793
15:00+25wsw77183 0.0 10101933
18:00+23wsw671913 0.0 10111260
21:00+15sw22365 0.0 101314